sat.trackr.live / text

‹ back to catalog

STARLINK-5448

NORAD 54770 · 2022-175N

PAYLOAD ACTIVE UNKNOWN

§ Identity

Operator
Country
US
Launch date
2022-12-17
Launch site
AFETR
Launch vehicle
Mass (kg)
RCS (m²)

Purposes: comms

External: N2YO · Heavens-Above · Gunter

§ Orbital elements

Epoch: 2026-09-20T22:35:13.410816Z

Period
93.85 min
Inclination
53.1587°
Eccentricity
0.0001251
Mean motion
15.34389108 rev/d
Perigee alt
461.9 km
Apogee alt
463.6 km
Semi-major
6,840.9 km
B*
1.5753e-5
RAAN
215.9618°
Arg perigee
85.5355°
Mean anomaly
274.5791°
Rev number
20,983

§ Raw data

STARLINK-54481 54770U 22175N   26263.94112744  .00000156  00000+0  15753-4 0  99972 54770  53.1587 215.9618 0001251  85.5355 274.5791 15.34389108209835

JSON: /api/v1/satellites/54770 · /tle

For live sub-satellite position, see the globe view (requires WebGL).

§ Visibility from observer

Set your observer location to see the next 7 days of passes ≥ 10°. The values pass through the URL so the page stays shareable.

No JS? Fill the form by hand. The geolocation button needs JavaScript.